Hourly Data Report for October 13, 2016

All times are specified in Local Standard Time (LST). Add 1 hour to adjust for Daylight Saving Time where and when it is observed.

IQALUIT CLIMATE
NUNAVUT

63°44'50.000" N
68°32'40.000" W
33.50 m
2402592
71321
XFB

Download Data

Hourly Data (October 2016)
Hourly Data Report for October 13, 2016
Temp Definition
°C
Dew Point Temp Definition
°C
Rel Hum Definition
%
Wind Dir Definition
10's deg

Wind Spd Definition
km/h
Visibility Definition
km
Stn Press Definition
kPa
Hmdx Definition


Wind Chill Definition


Weather Definition


TIME
00:00 -2.4 -5.8 78 8 15   100.72   -7 LegendNANA
01:00 -2.9 -5.2 84 5 17   100.63   -8 LegendNANA
02:00 -2.7 -4.4 89 6 16   100.56   -8 LegendNANA
03:00 -2.8 -3.6 94 6 15   100.49   -8 LegendNANA
04:00 -2.7 -3.6 93 5 24   100.40   -9 LegendNANA
05:00 -2.3 -3.7 90 5 24   100.33   -9 LegendNANA
06:00 -2.1 -4.4 85 5 25   100.29   -9 LegendNANA
07:00 -2.0 -4.9 80 5 25   100.25   -8 LegendNANA
08:00 -1.8 -5.3 77 6 21   100.21   -8 LegendNANA
09:00 -1.4 -5.7 73 9 10   100.16   -5 LegendNANA
10:00
11:00 -0.7 -6.0 67 6 11   100.11   -4 LegendNANA
12:00 -0.9 -5.5 71 6 16   100.10   -6 LegendNANA
13:00 -0.9 -5.4 72 6 20   100.11   -6 LegendNANA
14:00 -1.1 -5.4 73 5 18   100.13   -6 LegendNANA
15:00 -0.7 -5.4 71 7 15   100.15   -5 LegendNANA
16:00 -0.7 -5.2 72 8 12   100.20   -5 LegendNANA
17:00 -1.2 -4.9 75 15 4   100.23   -3 LegendNANA
18:00 -1.4 -4.2 81 15 7   100.27   -4 LegendNANA
19:00 -1.8 -4.2 84 21 2   100.26   -3 LegendNANA
20:00 -2.0 -5.7 76 10 10   100.28   -6 LegendNANA
21:00 -1.6 -5.2 76 11 9   100.27   -5 LegendNANA
22:00 -1.7 -4.3 82 12 15   100.28   -7 LegendNANA
23:00 -1.8 -3.5 88 12 13   100.27   -6 LegendNANA

Notes on Data Quality.

Legend

  • E = Estimated
  • M = Missing
  • NA = Not Available
  • ‡ = Partner data that is not subject to review by the National Climate Archives
Date modified: